Location: Corcelles
(46.1547°N, 4.7234°E)
Time: 10:53:44
(UTC+00:00)

CZ-4 R/B - Pass Details

Date: 14 July 2020
Orbit: 682 x 752 km, 98.5° (Epoch: 05 August)

Event Time Altitude Azimuth Distance (km) Brightness Sun altitude
Rises 00:01:40 0° 15° (NNE) 3,083 8.5 -22.1°
Reaches altitude 10° 00:03:55 10° 18° (NNE) 2,170 7.4 -22.1°
Maximum altitude 00:08:40 73° 103° (ESE) 742 3.8 -22.0°
Enters shadow 00:09:36 56° 167° (SSE) 845 3.8 -22.0°
